User: anonymous   Login
Location: Peebles
(55.6412°N, 3.1714°W)
Time: 03:18:32
(UTC+00:00)
Language:

Cosmos 1378 Rocket - Orbit

View from above orbital plane
View from above orbital plane
View from above satellite
View from above satellite

Ground track
Ground track

The orbit data is extracted from the following two-line orbital elements,

1 13272U 82059B   21333.90708436  .00000143  00000-0  13931-4 0  9997
2 13272  82.5127  50.4850 0019512 141.4469 218.8145 14.84786193112184
Epoch (UTC): 29 November 2021 21:46:12
Eccentricity: 0.0019512
inclination: 82.5127°
perigee height: 600 km
apogee height: 628 km
right ascension of ascending node: 50.4850°
argument of perigee: 141.4469°
revolutions per day: 14.84786193
mean anomaly at epoch: 218.8145°
orbit number at epoch: 11218

The dashed part of the orbit path shows where the satellite is in the earth's shadow,  

DLR